,

(GMT )
Cartwright

Weather History for CWCA - March, 2013

Change the Weather History Date:

Tuesday, March 12, 2013

  Actual Average Record
Temperature  
Mean Temperature 30 °F -  
Max Temperature 35 °F 19 °F 46 °F (2011)
Min Temperature 24 °F 6 °F -5 °F (2015)
Degree Days  
Heating Degree Days 36    
Moisture  
Dew Point 26 °F    
Average Humidity 81    
Maximum Humidity 100    
Minimum Humidity 55    
Precipitation  
Precipitation 0.04 in - - ()
Sea Level Pressure  
Sea Level Pressure 30.16 in    
Wind  
Wind Speed 4 mph ()    
Max Wind Speed 12 mph    
Max Gust Speed -    
Visibility 13.1 miles    
Events Snow    
Averages and records for this station are not official NWS values.
T = Trace of Precipitation, MM = Missing Value Source: Averaged Metar Reports

Daily Weather History Graph

Daily Weather History Graph

Search for Another Location

Airport or City:

Trip Planner

Search our weather history database for the weather conditions in past years. The results will help you decide how hot, cold, wet, or windy it might be!

Date:

Astronomy

Mar. 12, 2013 Rise Set
Actual Time 7:09 AM ADT 6:47 PM ADT
Civil Twilight 6:34 AM ADT 7:22 PM ADT
Nautical Twilight 5:53 AM ADT 8:03 PM ADT
Astronomical Twilight 5:11 AM ADT 8:45 PM ADT
Moon 7:00 AM ADT (3/12) 8:14 PM ADT (3/12)
Length of Visible Light 12h 47m
Length of Day
11h 37m
New Moon, 1% of the Moon is Illuminated
Mar 12
New Moon
Mar 19
First Quarter
Mar 27
Full
Apr 3
Last Quarter
Apr 10
New

Hourly Weather History & Observations

Time (ADT) Temp. Windchill Dew Point Humidity Pressure Visibility Wind Dir Wind Speed Gust Speed Precip Events Conditions
12:00 AM 32.0 °F 27.5 °F 24.8 °F 75% 30.12 in 15.0 mi SW 4.6 mph - N/A   Mostly Cloudy
1:00 AM 30.2 °F - 24.8 °F 80% 30.14 in 15.0 mi Calm Calm - N/A   Mostly Cloudy
2:00 AM 26.6 °F - 23.0 °F 86% 30.14 in 15.0 mi Calm Calm - N/A   Mostly Cloudy
3:00 AM 27 °F - 23 °F 80% 30.15 in 15 mi Calm Calm - -   Mostly Cloudy
3:00 AM 26.6 °F - 23.0 °F 86% 30.15 in 15.0 mi Calm Calm - N/A   Mostly Cloudy
4:00 AM 26.6 °F - 19.4 °F 74% 30.17 in 15.0 mi Calm Calm - N/A   Mostly Cloudy
5:00 AM 26.6 °F - 21.2 °F 80% 30.20 in 15.0 mi Calm Calm - N/A   Mostly Cloudy
7:00 AM 24.8 °F - 17.6 °F 74% 30.22 in 15.0 mi Calm Calm - N/A   Overcast
8:00 AM 26.6 °F 22.6 °F 19.4 °F 74% 30.24 in 15.0 mi NNE 3.5 mph - N/A   Overcast
9:00 AM 27 °F - 20 °F 64% 30.25 in 15 mi Calm Calm - -   Overcast
9:00 AM 26.6 °F - 19.4 °F 74% 30.25 in 15.0 mi Calm Calm - N/A   Overcast
10:00 AM 30.2 °F 24.3 °F 23.0 °F 75% 30.25 in 15.0 mi ENE 5.8 mph - N/A   Overcast
11:00 AM 30.2 °F 20.8 °F 23.0 °F 75% 30.22 in 15.0 mi NE 11.5 mph - N/A   Mostly Cloudy
12:00 PM 32.0 °F 23.6 °F 24.8 °F 75% 30.21 in 15.0 mi East 10.4 mph - N/A   Overcast
1:00 PM 33.8 °F 27.0 °F 28.4 °F 81% 30.19 in 15.0 mi SE 8.1 mph - N/A   Overcast
2:00 PM 32.0 °F 23.6 °F 23.0 °F 69% 30.16 in 15.0 mi East 10.4 mph - N/A   Overcast
3:00 PM 34 °F - 24 °F 55% 30.15 in 15 mi East 10.4 mph - -   Overcast
3:00 PM 33.8 °F 25.8 °F 24.8 °F 70% 30.15 in 15.0 mi East 10.4 mph - N/A   Overcast
3:05 PM - - - N/A% - 12.0 mi East 8.1 mph - N/A   Unknown
3:32 PM - - - N/A% - 2.0 mi East 9.2 mph - N/A   Unknown
4:00 PM 30.2 °F 21.9 °F 28.4 °F 93% 30.14 in 1.2 mi East 9.2 mph - N/A Snow Light Snow
5:00 PM 32.0 °F 26.4 °F 32.0 °F 100% 30.14 in 2.0 mi ESE 5.8 mph - N/A Snow Light Snow
6:00 PM 33.8 °F - 32.0 °F 93% 30.13 in 2.0 mi Calm Calm - N/A Snow Light Snow
7:00 PM 33.8 °F - 32.0 °F 93% 30.12 in 15.0 mi Calm Calm - N/A   Overcast
8:00 PM 33.8 °F 26.4 °F 32.0 °F 93% 30.08 in 15.0 mi SE 9.2 mph - N/A   Overcast
9:00 PM 34 °F - 32 °F 89% 30.09 in 15 mi South 5.8 mph - -   Partly Cloudy
9:00 PM 33.8 °F 28.6 °F 32.0 °F 93% 30.09 in 15.0 mi South 5.8 mph - N/A   Overcast
10:00 PM 35.6 °F 27.5 °F 32.0 °F 87% 30.08 in 15.0 mi South 11.5 mph - N/A   Overcast
11:00 PM 35.6 °F 27.5 °F 32.0 °F 87% 30.08 in 15.0 mi SSW 11.5 mph - N/A   Overcast